Location: Drocourt
(49.0571°N, 1.7669°E)
Time: 21:10:46
(UTC+00:00)

S-56A Canister/Altair - Pass Details

Date: 15 April 2024
Orbit: 638 x 2488 km, 38.9° (Epoch: 20 May)

Event Time Altitude Azimuth Distance (km) Brightness Sun altitude
Rises 19:37:35 0° 246° (WSW) 3,792 11.7 -8.7°
Reaches altitude 10° 19:40:00 10° 239° (WSW) 3,042 11.0 -9.1°
Maximum altitude 19:47:12 44° 170° (S) 1,972 9.3 -10.1°
Enters shadow 19:57:07 12° 105° (ESE) 4,247 10.7 -11.5°
Drops below altitude 10° 19:57:45 10° 104° (ESE) 4,429 - -11.6°
Sets 20:02:02 0° 99° (E) 5,680 - -12.2°
